Weather Service Report


912 
ASUS41 KCTP 301010
RWRCTP

REGIONAL WEATHER ROUNDUP
NATIONAL WEATHER SERVICE STATE COLLEGE PA
600 AM EDT TUE SEP 30 2014

Note: "fair" indicates few or no clouds below 12,000 feet with no 
significant weather and/or obstructions to visibility.

* = STATION THAT DOES NOT REPORT PRECIPITATION /E.G. RAIN...SNOW...ETC/
    THUNDER OR FOG.

PAZ002>004-007>009-013>016-020>023-029>032-301100-
WESTERN PENNSYLVANIA
  
CITY           SKY/WX    TMP DP  RH WIND       PRES   REMARKS
ERIE           MOCLDY    58  52  80 S6        29.87S                  
MEADVILLE      PTCLDY    56  52  86 CALM      29.89S                  
FRANKLIN*      PTCLDY    48  46  93 CALM      29.91S                  
NEW CASTLE     FOG       48  48 100 CALM      29.90S VSB 1/2          
BEAVER COUNTY  NOT AVBL                                               
BUTLER*          N/A     50  48  93 CALM      29.92R VSB 1/2          
PITTSBURGH INT PTCLDY    54  52  93 CALM      29.89S                  
PITTSBURGH     CLEAR     57  54  89 SE6       29.89R FOG              
INDIANA*       MOCLDY    54  52  94 CALM      29.95R                  
LATROBE        CLEAR     55  55 100 CALM      29.91S                  
WASHINGTON CO* MOCLDY    50  48  93 CALM      29.91S VSB 1/4          
$$

PAZ004>006-010>012-017>019-024>028-033>037-041-042-045-046-049>053-301100-
CENTRAL PENNSYLVANIA
  
CITY           SKY/WX    TMP DP  RH WIND       PRES   REMARKS
BRADFORD       FOG       46  44  93 CALM      29.92S VSB 1/2          
DUBOIS         CLEAR     52  52 100 E3        29.91R FOG              
CLEARFIELD     PTCLDY    49  49 100 CALM      29.92S FOG              
JOHNSTOWN      CLEAR     58  53  84 SW6       29.93S                  
ALTOONA        CLEAR     56  55  97 CALM      29.91F                  
STATE COLLEGE  PTCLDY    55  54  94 CALM      29.91S FOG              
WILLIAMSPORT   FOG       58  56  93 N5        29.90S VSB 1/4          
SELINSGROVE    FOG       57  57 100 CALM      29.91S VSB 1/4          
FT INDIANTOWN  FOG       60  60 100 NE2       29.92S VSB 1/2          
CAPITAL CITY   CLOUDY    62  59  90 CALM      29.91S                  
HARRISBURG     CLOUDY    61  60  97 E5        29.90S FOG              
YORK           FOG       56  55  97 CALM      29.91R VSB 1/4          
$$

PAZ038>040-043-044-047-048-054-055-060>062-067>071-301100-
EASTERN PENNSYLVANIA
  
CITY           SKY/WX    TMP DP  RH WIND       PRES   REMARKS
SCRANTON       CLEAR     58  54  86 E6        29.92S FOG              
MOUNT POCONO   FOG       52  51  97 CALM      29.95S VSB<1/4          
ALLENTOWN      FOG       57  55  94 CALM      29.93R VSB 1/4          
QUAKERTOWN*    CLOUDY    55  55 100 CALM      29.94S                  
READING        CLOUDY    61  59  93 CALM      29.92R FOG              
LANCASTER      FOG       60  60 100 E3        29.92R VSB<1/4          
COATESVILLE    FOG       63  63 100 SE3       29.94R VSB 1/4          
POTTSTOWN      PTCLDY    58  57  97 CALM      29.94S FOG              
BLUE BELL      CLOUDY    61  61 100 CALM      29.92S                  
DOYLESTOWN     CLOUDY    59  59 100 CALM      29.93R FOG              
WILLOW GROVE   NOT AVBL                                               
NORTH PHILA    CLOUDY    63  58  83 CALM      29.94R                  
PHILADELPHIA   CLOUDY    65  61  87 CALM      29.93R                  
$$

Return to Home page


Western Regional Climate Center, wrcc@dri.edu